TimeEDT,TemperatureF,Dew PointF,Humidity,Sea Level PressureIn,VisibilityMPH,Wind Direction,Wind SpeedMPH,Gust SpeedMPH,PrecipitationIn,Events,Conditions,WindDirDegrees,DateUTC
12:58 AM,23.9,20.8,88,30.43,10.0,Calm,Calm,-,N/A,,Clear,0,2013-10-29 04:58:00
1:58 AM,24.6,21.0,86,30.44,10.0,South,2.3,-,N/A,,Clear,170,2013-10-29 05:58:00
2:58 AM,22.3,21.0,95,30.44,10.0,Variable,3.5,-,N/A,,Clear,0,2013-10-29 06:58:00
3:58 AM,22.5,19.9,90,30.44,10.0,Calm,Calm,-,N/A,,Clear,0,2013-10-29 07:58:00
4:58 AM,21.9,20.8,96,30.45,10.0,Calm,Calm,-,N/A,,Clear,0,2013-10-29 08:58:00
5:58 AM,21.6,20.5,96,30.46,10.0,Calm,Calm,-,N/A,,Clear,0,2013-10-29 09:58:00
6:58 AM,19.8,18.1,93,30.48,10.0,SSE,1.2,-,N/A,,Clear,150,2013-10-29 10:58:00
7:58 AM,19.6,17.4,91,30.48,10.0,SE,1.2,-,N/A,,Clear,130,2013-10-29 11:58:00
8:28 AM,24.8,23.0,93,30.46,10.0,SE,3.5,-,N/A,,Clear,130,2013-10-29 12:28:00
8:38 AM,24.8,23.0,93,30.46,10.0,SSE,2.3,-,N/A,,Clear,150,2013-10-29 12:38:00
8:58 AM,26.4,23.9,90,30.50,10.0,SSE,2.3,-,0.00,,Clear,150,2013-10-29 12:58:00
9:58 AM,30.7,25.3,80,30.50,10.0,East,4.6,-,N/A,,Clear,80,2013-10-29 13:58:00
10:58 AM,34.2,24.3,67,30.50,10.0,North,4.6,-,N/A,,Clear,350,2013-10-29 14:58:00
11:58 AM,35.4,23.2,61,30.50,10.0,Variable,2.3,-,N/A,,Partly Cloudy,0,2013-10-29 15:58:00
12:58 PM,37.2,22.8,56,30.47,10.0,NE,2.3,-,N/A,,Clear,40,2013-10-29 16:58:00
1:58 PM,39.2,22.3,51,30.45,10.0,Variable,1.2,-,N/A,,Clear,0,2013-10-29 17:58:00
2:58 PM,39.7,20.5,46,30.43,10.0,Variable,2.3,-,N/A,,Clear,0,2013-10-29 18:58:00
3:58 PM,40.6,17.2,39,30.41,10.0,Variable,3.5,-,N/A,,Clear,0,2013-10-29 19:58:00
4:58 PM,39.6,17.2,41,30.41,6.0,West,2.3,-,N/A,,Haze,260,2013-10-29 20:58:00
5:58 PM,35.6,18.1,49,30.41,9.0,WNW,1.2,-,N/A,,Clear,290,2013-10-29 21:58:00
6:08 PM,32.0,21.2,64,30.38,2.0,West,2.3,-,N/A,,Haze,270,2013-10-29 22:08:00
6:18 PM,32.0,19.4,60,30.38,10.0,WNW,2.3,-,N/A,,Clear,290,2013-10-29 22:18:00
6:58 PM,34.2,22.5,62,30.41,10.0,SW,2.3,-,N/A,,Partly Cloudy,230,2013-10-29 22:58:00
7:58 PM,32.2,25.5,76,30.40,10.0,South,5.8,-,N/A,,Clear,180,2013-10-29 23:58:00
8:58 PM,30.9,25.0,79,30.38,10.0,South,4.6,-,N/A,,Clear,170,2013-10-30 00:58:00
9:58 PM,31.5,25.7,79,30.37,10.0,SSE,4.6,-,N/A,,Clear,160,2013-10-30 01:58:00
10:58 PM,31.6,25.5,78,30.35,10.0,SSE,5.8,-,N/A,,Scattered Clouds,150,2013-10-30 02:58:00
11:58 PM,32.9,24.4,71,30.34,10.0,SSE,5.8,-,N/A,,Overcast,150,2013-10-30 03:58:00